owner,sensor,date,latitude,longitude,sea_surface_height_above_sea_level,qcFlag 
COMPS,ioos:station:USF.COMPS:FHP:1,2017-11-01T00:12:00Z,28.1530,-82.8010,-9.994,1111122 
COMPS,ioos:station:USF.COMPS:FHP:1,2017-11-01T00:18:00Z,28.1530,-82.8010,-9.98,1111122 
COMPS,ioos:station:USF.COMPS:FHP:1,2017-11-01T00:24:00Z,28.1530,-82.8010,-9.964,1111122 
COMPS,ioos:station:USF.COMPS:FHP:1,2017-11-01T00:30:00Z,28.1530,-82.8010,-9.956,1111122 
COMPS,ioos:station:USF.COMPS:FHP:1,2017-11-01T00:36:00Z,28.1530,-82.8010,-9.939,1111122 
COMPS,ioos:station:USF.COMPS:FHP:1,2017-11-01T00:42:00Z,28.1530,-82.8010,-9.93,1111122 
COMPS,ioos:station:USF.COMPS:FHP:1,2017-11-01T00:48:00Z,28.1530,-82.8010,-9.915,1111122 
COMPS,ioos:station:USF.COMPS:FHP:1,2017-11-01T00:54:00Z,28.1530,-82.8010,-9.908,1111122 
COMPS,ioos:station:USF.COMPS:FHP:1,2017-11-01T01:00:00Z,28.1530,-82.8010,-9.893,1111122 
COMPS,ioos:station:USF.COMPS:FHP:1,2017-11-01T01:06:00Z,28.1530,-82.8010,-9.879,1111122 
COMPS,ioos:station:USF.COMPS:FHP:1,2017-11-01T01:12:00Z,28.1530,-82.8010,-9.871,1111122 
COMPS,ioos:station:USF.COMPS:FHP:1,2017-11-01T01:18:00Z,28.1530,-82.8010,-9.863,1111122 
COMPS,ioos:station:USF.COMPS:FHP:1,2017-11-01T01:24:00Z,28.1530,-82.8010,-9.853,1111122 
COMPS,ioos:station:USF.COMPS:FHP:1,2017-11-01T01:30:00Z,28.1530,-82.8010,-9.847,1111122 
COMPS,ioos:station:USF.COMPS:FHP:1,2017-11-01T01:36:00Z,28.1530,-82.8010,-9.84,1111122 
COMPS,ioos:station:USF.COMPS:FHP:1,2017-11-01T01:42:00Z,28.1530,-82.8010,-9.827,1111122 
COMPS,ioos:station:USF.COMPS:FHP:1,2017-11-01T01:48:00Z,28.1530,-82.8010,-9.82,1111122 
COMPS,ioos:station:USF.COMPS:FHP:1,2017-11-01T01:54:00Z,28.1530,-82.8010,-9.816,1111122 
COMPS,ioos:station:USF.COMPS:FHP:1,2017-11-01T02:00:00Z,28.1530,-82.8010,-9.82,1111122 
COMPS,ioos:station:USF.COMPS:FHP:1,2017-11-01T02:06:00Z,28.1530,-82.8010,-9.817,1111122 
COMPS,ioos:station:USF.COMPS:FHP:1,2017-11-01T02:12:00Z,28.1530,-82.8010,-9.815,1111122 
COMPS,ioos:station:USF.COMPS:FHP:1,2017-11-01T02:18:00Z,28.1530,-82.8010,-9.803,1111122 
COMPS,ioos:station:USF.COMPS:FHP:1,2017-11-01T02:24:00Z,28.1530,-82.8010,-9.81,1111122 
COMPS,ioos:station:USF.COMPS:FHP:1,2017-11-01T02:30:00Z,28.1530,-82.8010,-9.812,1111122 
COMPS,ioos:station:USF.COMPS:FHP:1,2017-11-01T02:36:00Z,28.1530,-82.8010,-9.813,1111122 
COMPS,ioos:station:USF.COMPS:FHP:1,2017-11-01T02:42:00Z,28.1530,-82.8010,-9.803,1111122 
COMPS,ioos:station:USF.COMPS:FHP:1,2017-11-01T02:48:00Z,28.1530,-82.8010,-9.806,1111122 
COMPS,ioos:station:USF.COMPS:FHP:1,2017-11-01T02:54:00Z,28.1530,-82.8010,-9.799,1111122 
COMPS,ioos:station:USF.COMPS:FHP:1,2017-11-01T03:00:00Z,28.1530,-82.8010,-9.799,1111122 
COMPS,ioos:station:USF.COMPS:FHP:1,2017-11-01T03:06:00Z,28.1530,-82.8010,-9.808,1111122 
COMPS,ioos:station:USF.COMPS:FHP:1,2017-11-01T03:12:00Z,28.1530,-82.8010,-9.806,1111122 
COMPS,ioos:station:USF.COMPS:FHP:1,2017-11-01T03:18:00Z,28.1530,-82.8010,-9.803,1111122 
COMPS,ioos:station:USF.COMPS:FHP:1,2017-11-01T03:24:00Z,28.1530,-82.8010,-9.806,1111122 
COMPS,ioos:station:USF.COMPS:FHP:1,2017-11-01T03:30:00Z,28.1530,-82.8010,-9.81,1111122 
COMPS,ioos:station:USF.COMPS:FHP:1,2017-11-01T03:36:00Z,28.1530,-82.8010,-9.816,1111122 
COMPS,ioos:station:USF.COMPS:FHP:1,2017-11-01T03:42:00Z,28.1530,-82.8010,-9.832,1111122 
COMPS,ioos:station:USF.COMPS:FHP:1,2017-11-01T03:48:00Z,28.1530,-82.8010,-9.838,1111122 
COMPS,ioos:station:USF.COMPS:FHP:1,2017-11-01T03:54:00Z,28.1530,-82.8010,-9.847,1111122 
COMPS,ioos:station:USF.COMPS:FHP:1,2017-11-01T04:00:00Z,28.1530,-82.8010,-9.853,1111122 
COMPS,ioos:station:USF.COMPS:FHP:1,2017-11-01T04:06:00Z,28.1530,-82.8010,-9.861,1111122 
COMPS,ioos:station:USF.COMPS:FHP:1,2017-11-01T04:12:00Z,28.1530,-82.8010,-9.875,1111122 
COMPS,ioos:station:USF.COMPS:FHP:1,2017-11-01T04:18:00Z,28.1530,-82.8010,-9.888,1111122 
COMPS,ioos:station:USF.COMPS:FHP:1,2017-11-01T04:24:00Z,28.1530,-82.8010,-9.904,1111122 
COMPS,ioos:station:USF.COMPS:FHP:1,2017-11-01T04:30:00Z,28.1530,-82.8010,-9.919,1111122 
COMPS,ioos:station:USF.COMPS:FHP:1,2017-11-01T04:36:00Z,28.1530,-82.8010,-9.939,1111122 
COMPS,ioos:station:USF.COMPS:FHP:1,2017-11-01T04:42:00Z,28.1530,-82.8010,-9.95,1111122 
COMPS,ioos:station:USF.COMPS:FHP:1,2017-11-01T04:48:00Z,28.1530,-82.8010,-9.956,1111122 
COMPS,ioos:station:USF.COMPS:FHP:1,2017-11-01T04:54:00Z,28.1530,-82.8010,-9.973,1111122 
COMPS,ioos:station:USF.COMPS:FHP:1,2017-11-01T05:00:00Z,28.1530,-82.8010,-9.985,1111122 
COMPS,ioos:station:USF.COMPS:FHP:1,2017-11-01T12:18:00Z,28.1530,-82.8010,-9.981,1111122 
COMPS,ioos:station:USF.COMPS:FHP:1,2017-11-01T12:24:00Z,28.1530,-82.8010,-9.955,1111122 
COMPS,ioos:station:USF.COMPS:FHP:1,2017-11-01T12:30:00Z,28.1530,-82.8010,-9.935,1111122 
COMPS,ioos:station:USF.COMPS:FHP:1,2017-11-01T12:36:00Z,28.1530,-82.8010,-9.91,1111122 
COMPS,ioos:station:USF.COMPS:FHP:1,2017-11-01T12:42:00Z,28.1530,-82.8010,-9.888,1111122 
COMPS,ioos:station:USF.COMPS:FHP:1,2017-11-01T12:48:00Z,28.1530,-82.8010,-9.863,1111122 
COMPS,ioos:station:USF.COMPS:FHP:1,2017-11-01T12:54:00Z,28.1530,-82.8010,-9.846,1111122 
COMPS,ioos:station:USF.COMPS:FHP:1,2017-11-01T13:00:00Z,28.1530,-82.8010,-9.829,1111122 
COMPS,ioos:station:USF.COMPS:FHP:1,2017-11-01T13:06:00Z,28.1530,-82.8010,-9.81,1111122 
COMPS,ioos:station:USF.COMPS:FHP:1,2017-11-01T13:12:00Z,28.1530,-82.8010,-9.793,1111122 
COMPS,ioos:station:USF.COMPS:FHP:1,2017-11-01T13:18:00Z,28.1530,-82.8010,-9.779,1111122 
COMPS,ioos:station:USF.COMPS:FHP:1,2017-11-01T13:24:00Z,28.1530,-82.8010,-9.759,1111122 
COMPS,ioos:station:USF.COMPS:FHP:1,2017-11-01T13:30:00Z,28.1530,-82.8010,-9.752,1111122 
COMPS,ioos:station:USF.COMPS:FHP:1,2017-11-01T13:36:00Z,28.1530,-82.8010,-9.738,1111122 
COMPS,ioos:station:USF.COMPS:FHP:1,2017-11-01T13:42:00Z,28.1530,-82.8010,-9.724,1111122 
COMPS,ioos:station:USF.COMPS:FHP:1,2017-11-01T13:48:00Z,28.1530,-82.8010,-9.714,1111122 
COMPS,ioos:station:USF.COMPS:FHP:1,2017-11-01T13:54:00Z,28.1530,-82.8010,-9.702,1111122 
COMPS,ioos:station:USF.COMPS:FHP:1,2017-11-01T14:00:00Z,28.1530,-82.8010,-9.691,1111122 
COMPS,ioos:station:USF.COMPS:FHP:1,2017-11-01T14:06:00Z,28.1530,-82.8010,-9.684,1111122 
COMPS,ioos:station:USF.COMPS:FHP:1,2017-11-01T14:12:00Z,28.1530,-82.8010,-9.67,1111122 
COMPS,ioos:station:USF.COMPS:FHP:1,2017-11-01T14:18:00Z,28.1530,-82.8010,-9.664,1111122 
COMPS,ioos:station:USF.COMPS:FHP:1,2017-11-01T14:24:00Z,28.1530,-82.8010,-9.66,1111122 
COMPS,ioos:station:USF.COMPS:FHP:1,2017-11-01T14:30:00Z,28.1530,-82.8010,-9.659,1111122 
COMPS,ioos:station:USF.COMPS:FHP:1,2017-11-01T14:36:00Z,28.1530,-82.8010,-9.657,1111122 
COMPS,ioos:station:USF.COMPS:FHP:1,2017-11-01T14:42:00Z,28.1530,-82.8010,-9.653,1111122 
COMPS,ioos:station:USF.COMPS:FHP:1,2017-11-01T14:48:00Z,28.1530,-82.8010,-9.663,1111122 
COMPS,ioos:station:USF.COMPS:FHP:1,2017-11-01T14:54:00Z,28.1530,-82.8010,-9.657,1111122 
COMPS,ioos:station:USF.COMPS:FHP:1,2017-11-01T15:00:00Z,28.1530,-82.8010,-9.662,1111122 
COMPS,ioos:station:USF.COMPS:FHP:1,2017-11-01T15:06:00Z,28.1530,-82.8010,-9.668,1111122 
COMPS,ioos:station:USF.COMPS:FHP:1,2017-11-01T15:12:00Z,28.1530,-82.8010,-9.673,1111122 
COMPS,ioos:station:USF.COMPS:FHP:1,2017-11-01T15:18:00Z,28.1530,-82.8010,-9.678,1111122 
COMPS,ioos:station:USF.COMPS:FHP:1,2017-11-01T15:24:00Z,28.1530,-82.8010,-9.684,1111122 
COMPS,ioos:station:USF.COMPS:FHP:1,2017-11-01T15:30:00Z,28.1530,-82.8010,-9.685,1111122 
COMPS,ioos:station:USF.COMPS:FHP:1,2017-11-01T15:36:00Z,28.1530,-82.8010,-9.701,1111122 
COMPS,ioos:station:USF.COMPS:FHP:1,2017-11-01T15:42:00Z,28.1530,-82.8010,-9.704,1111122 
COMPS,ioos:station:USF.COMPS:FHP:1,2017-11-01T15:48:00Z,28.1530,-82.8010,-9.713,1111122 
COMPS,ioos:station:USF.COMPS:FHP:1,2017-11-01T15:54:00Z,28.1530,-82.8010,-9.718,1111122 
COMPS,ioos:station:USF.COMPS:FHP:1,2017-11-01T16:00:00Z,28.1530,-82.8010,-9.739,1111122 
COMPS,ioos:station:USF.COMPS:FHP:1,2017-11-01T16:06:00Z,28.1530,-82.8010,-9.742,1111122 
COMPS,ioos:station:USF.COMPS:FHP:1,2017-11-01T16:12:00Z,28.1530,-82.8010,-9.752,1111122 
COMPS,ioos:station:USF.COMPS:FHP:1,2017-11-01T16:18:00Z,28.1530,-82.8010,-9.762,1111122 
COMPS,ioos:station:USF.COMPS:FHP:1,2017-11-01T16:24:00Z,28.1530,-82.8010,-9.764,1111122 
COMPS,ioos:station:USF.COMPS:FHP:1,2017-11-01T16:30:00Z,28.1530,-82.8010,-9.779,1111122 
COMPS,ioos:station:USF.COMPS:FHP:1,2017-11-01T16:36:00Z,28.1530,-82.8010,-9.789,1111122 
COMPS,ioos:station:USF.COMPS:FHP:1,2017-11-01T16:42:00Z,28.1530,-82.8010,-9.799,1111122 
COMPS,ioos:station:USF.COMPS:FHP:1,2017-11-01T16:48:00Z,28.1530,-82.8010,-9.813,1111122 
COMPS,ioos:station:USF.COMPS:FHP:1,2017-11-01T16:54:00Z,28.1530,-82.8010,-9.827,1111122 
COMPS,ioos:station:USF.COMPS:FHP:1,2017-11-01T17:00:00Z,28.1530,-82.8010,-9.84,1111122 
COMPS,ioos:station:USF.COMPS:FHP:1,2017-11-01T17:06:00Z,28.1530,-82.8010,-9.854,1111122 
COMPS,ioos:station:USF.COMPS:FHP:1,2017-11-01T17:12:00Z,28.1530,-82.8010,-9.865,1111122 
COMPS,ioos:station:USF.COMPS:FHP:1,2017-11-01T17:18:00Z,28.1530,-82.8010,-9.88,1111122 
COMPS,ioos:station:USF.COMPS:FHP:1,2017-11-01T17:24:00Z,28.1530,-82.8010,-9.895,1111122 
COMPS,ioos:station:USF.COMPS:FHP:1,2017-11-01T17:30:00Z,28.1530,-82.8010,-9.91,1111122 
COMPS,ioos:station:USF.COMPS:FHP:1,2017-11-01T17:36:00Z,28.1530,-82.8010,-9.918,1111122 
COMPS,ioos:station:USF.COMPS:FHP:1,2017-11-01T17:42:00Z,28.1530,-82.8010,-9.929,1111122 
COMPS,ioos:station:USF.COMPS:FHP:1,2017-11-01T17:48:00Z,28.1530,-82.8010,-9.943,1111122 
COMPS,ioos:station:USF.COMPS:FHP:1,2017-11-01T17:54:00Z,28.1530,-82.8010,-9.956,1111122 
COMPS,ioos:station:USF.COMPS:FHP:1,2017-11-01T18:00:00Z,28.1530,-82.8010,-9.972,1111122 
COMPS,ioos:station:USF.COMPS:FHP:1,2017-11-01T18:06:00Z,28.1530,-82.8010,-9.989,1111122 
COMPS,ioos:station:USF.COMPS:FHP:1,2017-11-01T23:30:00Z,28.1530,-82.8010,-9.987,1111122 
COMPS,ioos:station:USF.COMPS:FHP:1,2017-11-01T23:36:00Z,28.1530,-82.8010,-9.971,1111122 
COMPS,ioos:station:USF.COMPS:FHP:1,2017-11-01T23:42:00Z,28.1530,-82.8010,-9.948,1111122 
COMPS,ioos:station:USF.COMPS:FHP:1,2017-11-01T23:48:00Z,28.1530,-82.8010,-9.924,1111122 
COMPS,ioos:station:USF.COMPS:FHP:1,2017-11-01T23:54:00Z,28.1530,-82.8010,-9.903,1111122 
COMPS,ioos:station:USF.COMPS:FHP:1,2017-11-02T00:00:00Z,28.1530,-82.8010,-9.885,1111122 
COMPS,ioos:station:USF.COMPS:FHP:1,2017-11-02T00:06:00Z,28.1530,-82.8010,-9.861,1111122 
COMPS,ioos:station:USF.COMPS:FHP:1,2017-11-02T00:12:00Z,28.1530,-82.8010,-9.845,1111122 
COMPS,ioos:station:USF.COMPS:FHP:1,2017-11-02T00:18:00Z,28.1530,-82.8010,-9.825,1111122 
COMPS,ioos:station:USF.COMPS:FHP:1,2017-11-02T00:24:00Z,28.1530,-82.8010,-9.806,1111122 
COMPS,ioos:station:USF.COMPS:FHP:1,2017-11-02T00:30:00Z,28.1530,-82.8010,-9.789,1111122 
COMPS,ioos:station:USF.COMPS:FHP:1,2017-11-02T00:36:00Z,28.1530,-82.8010,-9.772,1111122 
COMPS,ioos:station:USF.COMPS:FHP:1,2017-11-02T00:42:00Z,28.1530,-82.8010,-9.757,1111122 
COMPS,ioos:station:USF.COMPS:FHP:1,2017-11-02T00:48:00Z,28.1530,-82.8010,-9.741,1111122 
COMPS,ioos:station:USF.COMPS:FHP:1,2017-11-02T00:54:00Z,28.1530,-82.8010,-9.723,1111122 
COMPS,ioos:station:USF.COMPS:FHP:1,2017-11-02T01:00:00Z,28.1530,-82.8010,-9.711,1111122 
COMPS,ioos:station:USF.COMPS:FHP:1,2017-11-02T01:06:00Z,28.1530,-82.8010,-9.695,1111122 
COMPS,ioos:station:USF.COMPS:FHP:1,2017-11-02T01:12:00Z,28.1530,-82.8010,-9.683,1111122 
COMPS,ioos:station:USF.COMPS:FHP:1,2017-11-02T01:18:00Z,28.1530,-82.8010,-9.67,1111122 
COMPS,ioos:station:USF.COMPS:FHP:1,2017-11-02T01:24:00Z,28.1530,-82.8010,-9.653,1111122 
COMPS,ioos:station:USF.COMPS:FHP:1,2017-11-02T01:30:00Z,28.1530,-82.8010,-9.64,1111122 
COMPS,ioos:station:USF.COMPS:FHP:1,2017-11-02T01:36:00Z,28.1530,-82.8010,-9.626,1111122 
COMPS,ioos:station:USF.COMPS:FHP:1,2017-11-02T01:42:00Z,28.1530,-82.8010,-9.612,1111122 
COMPS,ioos:station:USF.COMPS:FHP:1,2017-11-02T01:48:00Z,28.1530,-82.8010,-9.602,1111122 
COMPS,ioos:station:USF.COMPS:FHP:1,2017-11-02T01:54:00Z,28.1530,-82.8010,-9.59,1111122 
COMPS,ioos:station:USF.COMPS:FHP:1,2017-11-02T02:00:00Z,28.1530,-82.8010,-9.584,1111122 
COMPS,ioos:station:USF.COMPS:FHP:1,2017-11-02T02:06:00Z,28.1530,-82.8010,-9.574,1111122 
COMPS,ioos:station:USF.COMPS:FHP:1,2017-11-02T02:12:00Z,28.1530,-82.8010,-9.574,1111122 
COMPS,ioos:station:USF.COMPS:FHP:1,2017-11-02T02:18:00Z,28.1530,-82.8010,-9.562,1111122 
COMPS,ioos:station:USF.COMPS:FHP:1,2017-11-02T02:24:00Z,28.1530,-82.8010,-9.557,1111122 
COMPS,ioos:station:USF.COMPS:FHP:1,2017-11-02T02:30:00Z,28.1530,-82.8010,-9.553,1111122 
COMPS,ioos:station:USF.COMPS:FHP:1,2017-11-02T02:36:00Z,28.1530,-82.8010,-9.548,1111122 
COMPS,ioos:station:USF.COMPS:FHP:1,2017-11-02T02:42:00Z,28.1530,-82.8010,-9.547,1111122 
COMPS,ioos:station:USF.COMPS:FHP:1,2017-11-02T02:48:00Z,28.1530,-82.8010,-9.547,1111122 
COMPS,ioos:station:USF.COMPS:FHP:1,2017-11-02T02:54:00Z,28.1530,-82.8010,-9.544,1111122 
COMPS,ioos:station:USF.COMPS:FHP:1,2017-11-02T03:00:00Z,28.1530,-82.8010,-9.545,1111122 
COMPS,ioos:station:USF.COMPS:FHP:1,2017-11-02T03:06:00Z,28.1530,-82.8010,-9.54,1111122 
COMPS,ioos:station:USF.COMPS:FHP:1,2017-11-02T03:12:00Z,28.1530,-82.8010,-9.54,1111122 
COMPS,ioos:station:USF.COMPS:FHP:1,2017-11-02T03:18:00Z,28.1530,-82.8010,-9.54,1111122 
COMPS,ioos:station:USF.COMPS:FHP:1,2017-11-02T03:24:00Z,28.1530,-82.8010,-9.547,1111122 
COMPS,ioos:station:USF.COMPS:FHP:1,2017-11-02T03:30:00Z,28.1530,-82.8010,-9.547,1111122 
COMPS,ioos:station:USF.COMPS:FHP:1,2017-11-02T03:36:00Z,28.1530,-82.8010,-9.554,1111122 
COMPS,ioos:station:USF.COMPS:FHP:1,2017-11-02T03:42:00Z,28.1530,-82.8010,-9.555,1111122 
COMPS,ioos:station:USF.COMPS:FHP:1,2017-11-02T03:48:00Z,28.1530,-82.8010,-9.566,1111122 
COMPS,ioos:station:USF.COMPS:FHP:1,2017-11-02T03:54:00Z,28.1530,-82.8010,-9.574,1111122 
COMPS,ioos:station:USF.COMPS:FHP:1,2017-11-02T04:00:00Z,28.1530,-82.8010,-9.59,1111122 
COMPS,ioos:station:USF.COMPS:FHP:1,2017-11-02T04:06:00Z,28.1530,-82.8010,-9.601,1111122 
COMPS,ioos:station:USF.COMPS:FHP:1,2017-11-02T04:12:00Z,28.1530,-82.8010,-9.618,1111122 
COMPS,ioos:station:USF.COMPS:FHP:1,2017-11-02T04:18:00Z,28.1530,-82.8010,-9.617,1111122 
COMPS,ioos:station:USF.COMPS:FHP:1,2017-11-02T04:24:00Z,28.1530,-82.8010,-9.632,1111122 
COMPS,ioos:station:USF.COMPS:FHP:1,2017-11-02T04:30:00Z,28.1530,-82.8010,-9.646,1111122 
COMPS,ioos:station:USF.COMPS:FHP:1,2017-11-02T04:36:00Z,28.1530,-82.8010,-9.652,1111122 
COMPS,ioos:station:USF.COMPS:FHP:1,2017-11-02T04:42:00Z,28.1530,-82.8010,-9.668,1111122 
COMPS,ioos:station:USF.COMPS:FHP:1,2017-11-02T04:48:00Z,28.1530,-82.8010,-9.686,1111122 
COMPS,ioos:station:USF.COMPS:FHP:1,2017-11-02T04:54:00Z,28.1530,-82.8010,-9.695,1111122 
COMPS,ioos:station:USF.COMPS:FHP:1,2017-11-02T05:00:00Z,28.1530,-82.8010,-9.719,1111122 
COMPS,ioos:station:USF.COMPS:FHP:1,2017-11-02T05:06:00Z,28.1530,-82.8010,-9.733,1111122 
COMPS,ioos:station:USF.COMPS:FHP:1,2017-11-02T05:12:00Z,28.1530,-82.8010,-9.746,1111122 
COMPS,ioos:station:USF.COMPS:FHP:1,2017-11-02T05:18:00Z,28.1530,-82.8010,-9.774,1111122 
COMPS,ioos:station:USF.COMPS:FHP:1,2017-11-02T05:24:00Z,28.1530,-82.8010,-9.787,1111122 
COMPS,ioos:station:USF.COMPS:FHP:1,2017-11-02T05:30:00Z,28.1530,-82.8010,-9.813,1111122 
COMPS,ioos:station:USF.COMPS:FHP:1,2017-11-02T05:36:00Z,28.1530,-82.8010,-9.829,1111122 
COMPS,ioos:station:USF.COMPS:FHP:1,2017-11-02T05:42:00Z,28.1530,-82.8010,-9.853,1111122 
COMPS,ioos:station:USF.COMPS:FHP:1,2017-11-02T05:48:00Z,28.1530,-82.8010,-9.869,1111122 
COMPS,ioos:station:USF.COMPS:FHP:1,2017-11-02T05:54:00Z,28.1530,-82.8010,-9.89,1111122 
COMPS,ioos:station:USF.COMPS:FHP:1,2017-11-02T06:00:00Z,28.1530,-82.8010,-9.912,1111122 
COMPS,ioos:station:USF.COMPS:FHP:1,2017-11-02T06:06:00Z,28.1530,-82.8010,-9.933,1111122 
COMPS,ioos:station:USF.COMPS:FHP:1,2017-11-02T06:12:00Z,28.1530,-82.8010,-9.959,1111122 
COMPS,ioos:station:USF.COMPS:FHP:1,2017-11-02T06:18:00Z,28.1530,-82.8010,-9.973,1111122 
COMPS,ioos:station:USF.COMPS:FHP:1,2017-11-02T06:24:00Z,28.1530,-82.8010,-9.99,1111122 
COMPS,ioos:station:USF.COMPS:FHP:1,2017-11-02T12:24:00Z,28.1530,-82.8010,-9.984,1111122 
COMPS,ioos:station:USF.COMPS:FHP:1,2017-11-02T12:30:00Z,28.1530,-82.8010,-9.955,1111122 
COMPS,ioos:station:USF.COMPS:FHP:1,2017-11-02T12:36:00Z,28.1530,-82.8010,-9.928,1111122 
COMPS,ioos:station:USF.COMPS:FHP:1,2017-11-02T12:42:00Z,28.1530,-82.8010,-9.897,1111122 
COMPS,ioos:station:USF.COMPS:FHP:1,2017-11-02T12:48:00Z,28.1530,-82.8010,-9.872,1111122 
COMPS,ioos:station:USF.COMPS:FHP:1,2017-11-02T12:54:00Z,28.1530,-82.8010,-9.846,1111122 
COMPS,ioos:station:USF.COMPS:FHP:1,2017-11-02T13:00:00Z,28.1530,-82.8010,-9.825,1111122 
COMPS,ioos:station:USF.COMPS:FHP:1,2017-11-02T13:06:00Z,28.1530,-82.8010,-9.802,1111122 
COMPS,ioos:station:USF.COMPS:FHP:1,2017-11-02T13:12:00Z,28.1530,-82.8010,-9.782,1111122 
COMPS,ioos:station:USF.COMPS:FHP:1,2017-11-02T13:18:00Z,28.1530,-82.8010,-9.765,1111122 
COMPS,ioos:station:USF.COMPS:FHP:1,2017-11-02T13:24:00Z,28.1530,-82.8010,-9.744,1111122 
COMPS,ioos:station:USF.COMPS:FHP:1,2017-11-02T13:30:00Z,28.1530,-82.8010,-9.731,1111122 
COMPS,ioos:station:USF.COMPS:FHP:1,2017-11-02T13:36:00Z,28.1530,-82.8010,-9.717,1111122 
COMPS,ioos:station:USF.COMPS:FHP:1,2017-11-02T13:42:00Z,28.1530,-82.8010,-9.699,1111122 
COMPS,ioos:station:USF.COMPS:FHP:1,2017-11-02T13:48:00Z,28.1530,-82.8010,-9.678,1111122 
COMPS,ioos:station:USF.COMPS:FHP:1,2017-11-02T13:54:00Z,28.1530,-82.8010,-9.662,1111122 
COMPS,ioos:station:USF.COMPS:FHP:1,2017-11-02T14:00:00Z,28.1530,-82.8010,-9.64,1111122 
COMPS,ioos:station:USF.COMPS:FHP:1,2017-11-02T14:06:00Z,28.1530,-82.8010,-9.621,1111122 
COMPS,ioos:station:USF.COMPS:FHP:1,2017-11-02T14:12:00Z,28.1530,-82.8010,-9.603,1111122 
COMPS,ioos:station:USF.COMPS:FHP:1,2017-11-02T14:18:00Z,28.1530,-82.8010,-9.591,1111122 
COMPS,ioos:station:USF.COMPS:FHP:1,2017-11-02T14:24:00Z,28.1530,-82.8010,-9.584,1111122 
COMPS,ioos:station:USF.COMPS:FHP:1,2017-11-02T14:30:00Z,28.1530,-82.8010,-9.571,1111122 
COMPS,ioos:station:USF.COMPS:FHP:1,2017-11-02T14:36:00Z,28.1530,-82.8010,-9.564,1111122 
COMPS,ioos:station:USF.COMPS:FHP:1,2017-11-02T14:42:00Z,28.1530,-82.8010,-9.553,1111122 
COMPS,ioos:station:USF.COMPS:FHP:1,2017-11-02T14:48:00Z,28.1530,-82.8010,-9.546,1111122 
COMPS,ioos:station:USF.COMPS:FHP:1,2017-11-02T14:54:00Z,28.1530,-82.8010,-9.549,1111122 
COMPS,ioos:station:USF.COMPS:FHP:1,2017-11-02T15:00:00Z,28.1530,-82.8010,-9.547,1111122 
COMPS,ioos:station:USF.COMPS:FHP:1,2017-11-02T15:06:00Z,28.1530,-82.8010,-9.545,1111122 
COMPS,ioos:station:USF.COMPS:FHP:1,2017-11-02T15:12:00Z,28.1530,-82.8010,-9.538,1111122 
COMPS,ioos:station:USF.COMPS:FHP:1,2017-11-02T15:18:00Z,28.1530,-82.8010,-9.53,1111122 
COMPS,ioos:station:USF.COMPS:FHP:1,2017-11-02T15:24:00Z,28.1530,-82.8010,-9.534,1111122 
COMPS,ioos:station:USF.COMPS:FHP:1,2017-11-02T15:30:00Z,28.1530,-82.8010,-9.532,1111122 
COMPS,ioos:station:USF.COMPS:FHP:1,2017-11-02T15:36:00Z,28.1530,-82.8010,-9.543,1111122 
COMPS,ioos:station:USF.COMPS:FHP:1,2017-11-02T15:42:00Z,28.1530,-82.8010,-9.554,1111122 
COMPS,ioos:station:USF.COMPS:FHP:1,2017-11-02T15:48:00Z,28.1530,-82.8010,-9.554,1111122 
COMPS,ioos:station:USF.COMPS:FHP:1,2017-11-02T15:54:00Z,28.1530,-82.8010,-9.554,1111122 
COMPS,ioos:station:USF.COMPS:FHP:1,2017-11-02T16:00:00Z,28.1530,-82.8010,-9.552,1111122 
COMPS,ioos:station:USF.COMPS:FHP:1,2017-11-02T16:06:00Z,28.1530,-82.8010,-9.561,1111122 
COMPS,ioos:station:USF.COMPS:FHP:1,2017-11-02T16:12:00Z,28.1530,-82.8010,-9.567,1111122 
COMPS,ioos:station:USF.COMPS:FHP:1,2017-11-02T16:18:00Z,28.1530,-82.8010,-9.578,1111122 
COMPS,ioos:station:USF.COMPS:FHP:1,2017-11-02T16:24:00Z,28.1530,-82.8010,-9.584,1111122 
COMPS,ioos:station:USF.COMPS:FHP:1,2017-11-02T16:30:00Z,28.1530,-82.8010,-9.599,1111122 
COMPS,ioos:station:USF.COMPS:FHP:1,2017-11-02T16:36:00Z,28.1530,-82.8010,-9.607,1111122 
COMPS,ioos:station:USF.COMPS:FHP:1,2017-11-02T16:42:00Z,28.1530,-82.8010,-9.621,1111122 
COMPS,ioos:station:USF.COMPS:FHP:1,2017-11-02T16:48:00Z,28.1530,-82.8010,-9.629,1111122 
COMPS,ioos:station:USF.COMPS:FHP:1,2017-11-02T16:54:00Z,28.1530,-82.8010,-9.638,1111122 
COMPS,ioos:station:USF.COMPS:FHP:1,2017-11-02T17:00:00Z,28.1530,-82.8010,-9.65,1111122 
COMPS,ioos:station:USF.COMPS:FHP:1,2017-11-02T17:06:00Z,28.1530,-82.8010,-9.668,1111122 
COMPS,ioos:station:USF.COMPS:FHP:1,2017-11-02T17:12:00Z,28.1530,-82.8010,-9.677,1111122 
COMPS,ioos:station:USF.COMPS:FHP:1,2017-11-02T17:18:00Z,28.1530,-82.8010,-9.693,1111122 
COMPS,ioos:station:USF.COMPS:FHP:1,2017-11-02T17:24:00Z,28.1530,-82.8010,-9.705,1111122 
COMPS,ioos:station:USF.COMPS:FHP:1,2017-11-02T17:30:00Z,28.1530,-82.8010,-9.721,1111122 
COMPS,ioos:station:USF.COMPS:FHP:1,2017-11-02T17:36:00Z,28.1530,-82.8010,-9.735,1111122 
COMPS,ioos:station:USF.COMPS:FHP:1,2017-11-02T17:42:00Z,28.1530,-82.8010,-9.752,1111122 
COMPS,ioos:station:USF.COMPS:FHP:1,2017-11-02T17:48:00Z,28.1530,-82.8010,-9.767,1111122 
COMPS,ioos:station:USF.COMPS:FHP:1,2017-11-02T17:54:00Z,28.1530,-82.8010,-9.788,1111122 
COMPS,ioos:station:USF.COMPS:FHP:1,2017-11-02T18:00:00Z,28.1530,-82.8010,-9.804,1111122 
COMPS,ioos:station:USF.COMPS:FHP:1,2017-11-02T18:06:00Z,28.1530,-82.8010,-9.823,1111122 
COMPS,ioos:station:USF.COMPS:FHP:1,2017-11-02T18:12:00Z,28.1530,-82.8010,-9.841,1111122 
COMPS,ioos:station:USF.COMPS:FHP:1,2017-11-02T18:18:00Z,28.1530,-82.8010,-9.859,1111122 
COMPS,ioos:station:USF.COMPS:FHP:1,2017-11-02T18:24:00Z,28.1530,-82.8010,-9.873,1111122 
COMPS,ioos:station:USF.COMPS:FHP:1,2017-11-02T18:30:00Z,28.1530,-82.8010,-9.893,1111122 
COMPS,ioos:station:USF.COMPS:FHP:1,2017-11-02T18:36:00Z,28.1530,-82.8010,-9.91,1111122 
COMPS,ioos:station:USF.COMPS:FHP:1,2017-11-02T18:42:00Z,28.1530,-82.8010,-9.924,1111122 
COMPS,ioos:station:USF.COMPS:FHP:1,2017-11-02T18:48:00Z,28.1530,-82.8010,-9.943,1111122 
COMPS,ioos:station:USF.COMPS:FHP:1,2017-11-02T18:54:00Z,28.1530,-82.8010,-9.959,1111122 
COMPS,ioos:station:USF.COMPS:FHP:1,2017-11-02T19:00:00Z,28.1530,-82.8010,-9.979,1111122 
COMPS,ioos:station:USF.COMPS:FHP:1,2017-11-02T19:06:00Z,28.1530,-82.8010,-9.996,1111122 
COMPS,ioos:station:USF.COMPS:FHP:1,2017-11-03T00:06:00Z,28.1530,-82.8010,-9.993,1111122 
COMPS,ioos:station:USF.COMPS:FHP:1,2017-11-03T00:12:00Z,28.1530,-82.8010,-9.969,1111122 
COMPS,ioos:station:USF.COMPS:FHP:1,2017-11-03T00:18:00Z,28.1530,-82.8010,-9.949,1111122 
COMPS,ioos:station:USF.COMPS:FHP:1,2017-11-03T00:24:00Z,28.1530,-82.8010,-9.925,1111122 
COMPS,ioos:station:USF.COMPS:FHP:1,2017-11-03T00:30:00Z,28.1530,-82.8010,-9.907,1111122 
COMPS,ioos:station:USF.COMPS:FHP:1,2017-11-03T00:36:00Z,28.1530,-82.8010,-9.887,1111122 
COMPS,ioos:station:USF.COMPS:FHP:1,2017-11-03T00:42:00Z,28.1530,-82.8010,-9.87,1111122 
COMPS,ioos:station:USF.COMPS:FHP:1,2017-11-03T00:48:00Z,28.1530,-82.8010,-9.847,1111122 
COMPS,ioos:station:USF.COMPS:FHP:1,2017-11-03T00:54:00Z,28.1530,-82.8010,-9.825,1111122 
COMPS,ioos:station:USF.COMPS:FHP:1,2017-11-03T01:00:00Z,28.1530,-82.8010,-9.803,1111122 
COMPS,ioos:station:USF.COMPS:FHP:1,2017-11-03T01:06:00Z,28.1530,-82.8010,-9.782,1111122 
COMPS,ioos:station:USF.COMPS:FHP:1,2017-11-03T01:12:00Z,28.1530,-82.8010,-9.766,1111122 
COMPS,ioos:station:USF.COMPS:FHP:1,2017-11-03T01:18:00Z,28.1530,-82.8010,-9.742,1111122 
COMPS,ioos:station:USF.COMPS:FHP:1,2017-11-03T01:24:00Z,28.1530,-82.8010,-9.722,1111122 
COMPS,ioos:station:USF.COMPS:FHP:1,2017-11-03T01:30:00Z,28.1530,-82.8010,-9.701,1111122 
COMPS,ioos:station:USF.COMPS:FHP:1,2017-11-03T01:36:00Z,28.1530,-82.8010,-9.683,1111122 
COMPS,ioos:station:USF.COMPS:FHP:1,2017-11-03T01:42:00Z,28.1530,-82.8010,-9.667,1111122 
COMPS,ioos:station:USF.COMPS:FHP:1,2017-11-03T01:48:00Z,28.1530,-82.8010,-9.65,1111122 
COMPS,ioos:station:USF.COMPS:FHP:1,2017-11-03T01:54:00Z,28.1530,-82.8010,-9.632,1111122 
COMPS,ioos:station:USF.COMPS:FHP:1,2017-11-03T02:00:00Z,28.1530,-82.8010,-9.614,1111122 
COMPS,ioos:station:USF.COMPS:FHP:1,2017-11-03T02:06:00Z,28.1530,-82.8010,-9.601,1111122 
COMPS,ioos:station:USF.COMPS:FHP:1,2017-11-03T02:12:00Z,28.1530,-82.8010,-9.587,1111122 
COMPS,ioos:station:USF.COMPS:FHP:1,2017-11-03T02:18:00Z,28.1530,-82.8010,-9.579,1111122 